Location: Melque
(41.0517°N, 4.4694°W)
Time: 09:07:40
(UTC+00:00)

Meteor 2-20 - Pass Details

Date: 14 March 2026
Orbit: 938 x 958 km, 82.5° (Epoch: 20 April)

Event Time Altitude Azimuth Distance (km) Brightness Sun altitude
Rises 18:58:14 0° 346° (NNW) 3,648 7.7 -7.4°
Reaches altitude 10° 19:00:49 10° 341° (NNW) 2,697 7.1 -7.9°
Maximum altitude 19:06:43 49° 269° (W) 1,217 5.6 -9.0°
Drops below altitude 10° 19:12:34 10° 196° (SSW) 2,673 6.9 -10.1°
Sets 19:15:07 0° 191° (S) 3,612 7.5 -10.6°
